Lambertville, MI

4:04 AM EST on November 18, 2019 (GMT -0500)
Lambertville

Weather History for KDUH - October, 2019

Change the Weather History Date:

Sunday, October 13, 2019

  Actual Average (KTOL) Record (KTOL)
Temperature  
Mean Temperature 55 °F -  
Max Temperature 66 °F 64 °F 83 °F (1975)
Min Temperature 44 °F 40 °F 23 °F (1988)
Degree Days  
Heating Degree Days 10    
Growing Degree Days 5 (Base 50)    
Moisture  
Dew Point 33 °F    
Average Humidity 48    
Maximum Humidity 64    
Minimum Humidity 24    
Precipitation  
Precipitation 0.00 in - - ()
Sea Level Pressure  
Sea Level Pressure 29.88 in    
Wind  
Wind Speed 8 mph ()    
Max Wind Speed 17 mph    
Max Gust Speed 29 mph    
Visibility 10.0 miles    
Events      
Averages and records for this station are not official NWS values.
T = Trace of Precipitation, MM = Missing Value Source: Averaged Metar Reports

Daily Weather History Graph

Daily Weather History Graph

Search for Another Location

Airport or City:

Astronomy

Oct. 13, 2019 Rise Set
Actual Time 7:44 AM EDT 6:56 PM EDT
Civil Twilight 7:16 AM EDT 7:24 PM EDT
Nautical Twilight 6:44 AM EDT 7:56 PM EDT
Astronomical Twilight 6:11 AM EDT 8:29 PM EDT
Moon 7:19 PM EDT (10/13) 7:16 AM EDT (10/13)
Length of Visible Light 12h 08m
Length of Day
11h 12m
Full, 100% of the Moon is Illuminated
Oct 13
Full
Oct 13
Full
Oct 21
Last Quarter
Oct 27
New
Nov 4
First Quarter

Hourly Weather History & Observations

Time (EDT) Temp. Windchill Dew Point Humidity Pressure Visibility Wind Dir Wind Speed Gust Speed Precip Events Conditions
12:16 AM 46.6 °F - 31.5 °F 56% 29.98 in 10.0 mi SSW 9.2 mph - N/A   Clear
12:35 AM 46.4 °F 42.4 °F 31.6 °F 56% 29.98 in 10.0 mi SSW 8.1 mph - N/A   Clear
12:36 AM 46.4 °F 42.9 °F 31.6 °F 56% 29.98 in 10.0 mi South 6.9 mph - N/A   Clear
12:55 AM 45.7 °F 42.0 °F 32.0 °F 59% 29.98 in 10.0 mi South 6.9 mph - N/A   Clear
1:37 AM 45.0 °F 41.2 °F 32.0 °F 60% 29.97 in 10.0 mi SSW 6.9 mph - N/A   Clear
1:55 AM 45.3 °F 42.3 °F 32.0 °F 60% 29.97 in 10.0 mi South 5.8 mph - N/A   Clear
1:56 AM 45.1 °F 41.4 °F 32.0 °F 60% 29.97 in 10.0 mi South 6.9 mph - N/A   Clear
2:15 AM 45.0 °F 41.2 °F 32.0 °F 60% 29.97 in 10.0 mi South 6.9 mph - N/A   Clear
2:16 AM 45.0 °F 41.8 °F 32.0 °F 60% 29.97 in 10.0 mi South 5.8 mph - N/A   Clear
2:35 AM 44.6 °F 40.7 °F 32.2 °F 62% 29.97 in 10.0 mi South 6.9 mph - N/A   Clear
2:57 AM 44.6 °F 41.4 °F 32.4 °F 62% 29.96 in 10.0 mi South 5.8 mph - N/A   Clear
3:16 AM 44.6 °F 41.4 °F 32.5 °F 63% 29.96 in 10.0 mi South 5.8 mph - N/A   Clear
3:35 AM 45.1 °F 41.4 °F 32.5 °F 61% 29.96 in 10.0 mi South 6.9 mph - N/A   Clear
3:55 AM 45.3 °F 41.1 °F 32.5 °F 61% 29.95 in 10.0 mi South 8.1 mph 16.1 mph N/A   Clear
3:56 AM 45.1 °F 40.8 °F 32.5 °F 61% 29.95 in 10.0 mi SSW 8.1 mph 16.1 mph N/A   Clear
4:18 AM 45.0 °F 40.6 °F 32.7 °F 62% 29.95 in 10.0 mi South 8.1 mph - N/A   Clear
4:37 AM 44.8 °F 39.4 °F 32.5 °F 62% 29.95 in 10.0 mi South 10.4 mph - N/A   Clear
4:55 AM 44.8 °F 40.4 °F 32.7 °F 63% 29.95 in 10.0 mi SSW 8.1 mph - N/A   Clear
5:15 AM 44.8 °F 41.6 °F 32.5 °F 62% 29.94 in 10.0 mi South 5.8 mph - N/A   Clear
5:16 AM 44.6 °F 40.7 °F 32.5 °F 63% 29.94 in 10.0 mi South 6.9 mph - N/A   Clear
5:35 AM 44.8 °F 41.0 °F 32.5 °F 62% 29.94 in 10.0 mi South 6.9 mph - N/A   Clear
5:40 AM 44.8 °F 39.9 °F 32.5 °F 62% 29.94 in 10.0 mi SSW 9.2 mph - N/A   Clear
5:58 AM 44.6 °F 40.2 °F 32.5 °F 63% 29.93 in 10.0 mi South 8.1 mph - N/A   Clear
6:16 AM 44.6 °F 40.2 °F 32.5 °F 63% 29.93 in 10.0 mi South 8.1 mph - N/A   Clear
6:35 AM 45.3 °F 40.1 °F 32.4 °F 61% 29.93 in 10.0 mi South 10.4 mph - N/A   Clear
6:36 AM 45.3 °F 40.6 °F 32.4 °F 61% 29.93 in 10.0 mi South 9.2 mph - N/A   Clear
6:55 AM 44.8 °F 41.0 °F 32.5 °F 62% 29.93 in 10.0 mi South 6.9 mph - N/A   Clear
6:56 AM 44.8 °F 41.0 °F 32.5 °F 62% 29.93 in 10.0 mi South 6.9 mph - N/A   Clear
7:19 AM 44.6 °F 39.7 °F 32.5 °F 63% 29.93 in 10.0 mi South 9.2 mph - N/A   Clear
7:37 AM 44.6 °F 39.7 °F 32.7 °F 63% 29.92 in 10.0 mi South 9.2 mph - N/A   Clear
7:55 AM 44.6 °F 39.2 °F 32.9 °F 64% 29.92 in 10.0 mi South 10.4 mph 16.1 mph N/A   Clear
8:15 AM 45.3 °F 40.6 °F 32.9 °F 62% 29.91 in 10.0 mi South 9.2 mph 16.1 mph N/A   Clear
8:35 AM 46.0 °F 41.9 °F 33.1 °F 61% 29.92 in 10.0 mi SSW 8.1 mph - N/A   Clear
8:39 AM 46.4 °F 42.9 °F 33.1 °F 60% 29.92 in 10.0 mi SSW 6.9 mph - N/A   Clear
8:58 AM 47.7 °F - 33.4 °F 58% 29.91 in 10.0 mi South 9.2 mph 16.1 mph N/A   Clear
9:16 AM 48.7 °F - 33.8 °F 56% 29.91 in 10.0 mi SSW 9.2 mph - N/A   Clear
9:35 AM 50.0 °F - 33.8 °F 54% 29.91 in 10.0 mi SSW 9.2 mph 16.1 mph N/A   Clear
9:55 AM 51.3 °F - 34.3 °F 52% 29.90 in 10.0 mi SW 11.5 mph 16.1 mph N/A   Clear
10:19 AM 53.1 °F - 34.2 °F 49% 29.89 in 10.0 mi SSW 10.4 mph 17.3 mph N/A   Clear
10:37 AM 54.3 °F - 35.1 °F 48% 29.89 in 10.0 mi SW 8.1 mph - N/A   Clear
10:55 AM 55.6 °F - 35.1 °F 46% 29.88 in 10.0 mi SSW 8.1 mph 17.3 mph N/A   Clear
11:15 AM 56.5 °F - 34.9 °F 44% 29.88 in 10.0 mi SW 9.2 mph - N/A   Clear
11:35 AM 58.1 °F - 34.9 °F 42% 29.87 in 10.0 mi SW 12.7 mph 19.6 mph N/A   Clear
11:58 AM 59.0 °F - 35.4 °F 41% 29.87 in 10.0 mi SSW 6.9 mph - N/A   Clear
12:16 PM 59.7 °F - 35.1 °F 40% 29.87 in 10.0 mi SSW 12.7 mph 17.3 mph N/A   Clear
12:35 PM 60.3 °F - 35.4 °F 39% 29.87 in 10.0 mi SSW 11.5 mph 19.6 mph N/A   Clear
12:36 PM 60.3 °F - 35.4 °F 39% 29.86 in 10.0 mi SSW 12.7 mph 19.6 mph N/A   Clear
12:55 PM 61.3 °F - 35.2 °F 38% 29.86 in 10.0 mi SSW 15.0 mph 20.7 mph N/A   Clear
12:56 PM 61.3 °F - 35.2 °F 38% 29.85 in 10.0 mi SW 12.7 mph 20.7 mph N/A   Clear
1:19 PM 62.6 °F - 34.7 °F 35% 29.84 in 10.0 mi SSW 11.5 mph 20.7 mph N/A   Clear
1:37 PM 63.9 °F - 34.9 °F 34% 29.83 in 10.0 mi SSW 11.5 mph 18.4 mph N/A   Clear
1:55 PM 64.2 °F - 33.8 °F 32% 29.83 in 10.0 mi SW 13.8 mph 19.6 mph N/A   Clear
1:56 PM 64.2 °F - 33.8 °F 32% 29.83 in 10.0 mi WSW 11.5 mph 19.6 mph N/A   Clear
2:15 PM 64.4 °F - 32.4 °F 30% 29.82 in 10.0 mi SW 16.1 mph 23.0 mph N/A   Clear
2:16 PM 64.4 °F - 32.2 °F 30% 29.82 in 10.0 mi SW 17.3 mph 23.0 mph N/A   Clear
2:35 PM 65.5 °F - 34.0 °F 31% 29.81 in 10.0 mi SSW 16.1 mph 21.9 mph N/A   Clear
2:40 PM 65.5 °F - 32.9 °F 30% 29.81 in 10.0 mi SW 15.0 mph 21.9 mph N/A   Clear
2:58 PM 65.3 °F - 31.6 °F 28% 29.80 in 10.0 mi SW 15.0 mph 23.0 mph N/A   Clear
3:16 PM 65.8 °F - 32.0 °F 28% 29.80 in 10.0 mi SW 15.0 mph 23.0 mph N/A   Clear
3:35 PM 65.7 °F - 31.3 °F 28% 29.79 in 10.0 mi WSW 16.1 mph 25.3 mph N/A   Clear
3:36 PM 65.7 °F - 31.3 °F 28% 29.80 in 10.0 mi SW 17.3 mph 25.3 mph N/A   Clear
3:55 PM 65.8 °F - 30.6 °F 27% 29.79 in 10.0 mi SW 10.4 mph 28.8 mph N/A   Clear
4:19 PM 66.4 °F - 31.5 °F 27% 29.78 in 10.0 mi WSW 13.8 mph 21.9 mph N/A   Clear
4:37 PM 66.6 °F - 31.1 °F 27% 29.78 in 10.0 mi SW 16.1 mph 25.3 mph N/A   Clear
4:55 PM 66.4 °F - 30.0 °F 26% 29.78 in 10.0 mi WSW 11.5 mph 17.3 mph N/A   Clear
5:15 PM 66.0 °F - 27.9 °F 24% 29.78 in 10.0 mi WSW 15.0 mph 23.0 mph N/A   Clear
5:16 PM 65.8 °F - 27.7 °F 24% 29.78 in 10.0 mi WSW 11.5 mph 23.0 mph N/A   Clear
5:35 PM 65.3 °F - 28.8 °F 25% 29.79 in 10.0 mi WSW 12.7 mph 21.9 mph N/A   Clear
5:39 PM 65.3 °F - 27.9 °F 24% 29.78 in 10.0 mi SW 12.7 mph 21.9 mph N/A   Clear
5:58 PM 64.8 °F - 28.8 °F 26% 29.79 in 10.0 mi WSW 10.4 mph 17.3 mph N/A   Clear
6:16 PM 64.2 °F - 28.6 °F 26% 29.79 in 10.0 mi SW 10.4 mph 17.3 mph N/A   Clear
6:35 PM 62.8 °F - 29.1 °F 28% 29.80 in 10.0 mi SW 6.9 mph - N/A   Clear
6:55 PM 61.5 °F - 29.7 °F 30% 29.81 in 10.0 mi SW 4.6 mph - N/A   Clear
7:19 PM 60.4 °F - 31.5 °F 34% 29.82 in 10.0 mi WSW 3.5 mph - N/A   Clear
7:37 PM 59.4 °F - 32.4 °F 36% 29.82 in 10.0 mi Calm Calm - N/A   Clear
7:55 PM 59.0 °F - 32.9 °F 37% 29.83 in 10.0 mi Calm Calm - N/A   Clear
7:56 PM 59.0 °F - 32.9 °F 37% 29.83 in 10.0 mi Calm Calm - N/A   Clear
8:15 PM 58.3 °F - 34.5 °F 41% 29.84 in 10.0 mi Calm Calm - N/A   Clear
8:35 PM 56.7 °F - 37.4 °F 49% 29.84 in 10.0 mi Calm Calm - N/A   Scattered Clouds
8:58 PM 56.1 °F - 37.0 °F 49% 29.85 in 10.0 mi Calm Calm - N/A   Scattered Clouds
9:16 PM 56.3 °F - 34.9 °F 45% 29.86 in 10.0 mi NW 6.9 mph - N/A   Clear
9:35 PM 54.0 °F - 35.4 °F 50% 29.87 in 10.0 mi NNW 5.8 mph 16.1 mph N/A   Scattered Clouds
9:36 PM 53.8 °F - 35.6 °F 50% 29.87 in 10.0 mi NNW 5.8 mph 16.1 mph N/A   Scattered Clouds
9:55 PM 52.2 °F - 35.8 °F 54% 29.87 in 10.0 mi NNW 6.9 mph 16.1 mph N/A   Scattered Clouds
9:56 PM 52.2 °F - 35.8 °F 54% 29.88 in 10.0 mi North 6.9 mph - N/A   Scattered Clouds
10:19 PM 51.4 °F - 36.1 °F 56% 29.88 in 10.0 mi NNW 5.8 mph - N/A   Overcast
10:37 PM 51.1 °F - 36.3 °F 57% 29.89 in 10.0 mi NNW 4.6 mph - N/A   Mostly Cloudy
10:55 PM 50.9 °F - 37.2 °F 59% 29.89 in 10.0 mi NW 3.5 mph - N/A   Overcast
11:15 PM 50.7 °F - 36.9 °F 59% 29.90 in 10.0 mi Calm Calm - N/A   Overcast
11:35 PM 50.4 °F - 36.9 °F 60% 29.90 in 10.0 mi NW 3.5 mph - N/A   Overcast
11:40 PM 50.4 °F - 36.9 °F 60% 29.90 in 10.0 mi NW 3.5 mph - N/A   Mostly Cloudy
11:58 PM 50.0 °F - 36.9 °F 61% 29.90 in 10.0 mi NW 3.5 mph - N/A   Mostly Cloudy